User: anonymous   Login
Location: Unspecified
(0.0000°N, 0.0000°E)
Time: 03:43:27
(UTC+00:00)
Language:

Vanguard 2 - Orbit

View from above orbital plane
View from above orbital plane
View from above satellite
View from above satellite

Ground track
Ground track

The orbit data is extracted from the following two-line orbital elements,

1    11U 59001A   18267.92412734 +.00000218 +00000-0 +99816-4 0  9991
2    11 032.8763 266.2262 1467226 286.6535 057.8373 11.85543310200008
Epoch (UTC): 24 September 2018 22:10:44
Eccentricity: 0.1467226
inclination: 32.8763°
perigee height: 554 km
apogee height: 2938 km
right ascension of ascending node: 266.2262°
argument of perigee: 286.6535°
revolutions per day: 11.85543310
mean anomaly at epoch: 57.8373°
orbit number at epoch: 20000

The dashed part of the orbit path shows where the satellite is in the earth's shadow,  

DLR